Location: Beaurecueil
(43.5122°N, 5.5450°E)
Time: 02:21:53
(UTC+00:00)

Meteor 1-21 - Pass Details

Date: 25 June 2021
Orbit: 846 x 885 km, 81.2° (Epoch: 03 August)

Event Time Altitude Azimuth Distance (km) Brightness Sun altitude
Rises 20:43:48 0° 237° (WSW) 3,415 7.5 -11.8°
Reaches altitude 10° 20:47:12 10° 259° (WSW) 2,478 7.0 -12.2°
Maximum altitude 20:50:38 16° 297° (WNW) 2,066 7.2 -12.6°
Drops below altitude 10° 20:54:03 10° 335° (NNW) 2,480 8.0 -13.0°
Sets 20:57:29 0° 356° (N) 3,419 8.4 -13.4°
